Weather History for Richlands, VA

Change the Weather History Date:

Monday, September 23, 2013

  Actual Average (KBLF) Record (KBLF)
Temperature  
Mean Temperature 60 °F 63 °F  
Max Temperature 71 °F 72 °F 89 °F (2010)
Min Temperature 48 °F 55 °F 33 °F (1989)
Degree Days  
Heating Degree Days 6 4  
Month to date heating degree days 40  
Since 1 July heating degree days 46  
Cooling Degree Days 0 2  
Month to date cooling degree days 87  
Year to date cooling degree days 821  
Growing Degree Days 10 (Base 50)    
Moisture  
Dew Point 52 °F    
Average Humidity 77    
Maximum Humidity 95    
Minimum Humidity 49    
Precipitation  
Precipitation 0.00 in 0.10 in 1.71 in (1975)
Month to date precipitation 2.39  
Year to date precipitation 30.78  
Snow  
Snow 0.00 in - - ()
Month to date snowfall  
Since 1 July snowfall  
Since 1 September snowfall  
Snow Depth -    
Sea Level Pressure  
Sea Level Pressure 30.07 in    
Wind  
Wind Speed 3 mph (North)    
Max Wind Speed 10 mph    
Max Gust Speed -    
Visibility 8 miles    
Events Fog    
T = Trace of Precipitation, MM = Missing Value Source: NWS Daily Summary

Daily Weather History Graph

Daily Weather History Graph

Search for Another Location

Airport:

Trip Planner

Search our weather history database for the weather conditions in past years. The results will help you decide how hot, cold, wet, or windy it might be!

Date:

Astronomy

Sep. 23, 2013 Rise Set
Actual Time 7:16 AM EDT 7:22 PM EDT
Civil Twilight 6:50 AM EDT 7:48 PM EDT
Nautical Twilight 6:19 AM EDT 8:18 PM EDT
Astronomical Twilight 5:49 AM EDT 8:48 PM EDT
Moon 10:00 PM EDT (9/23) 11:27 AM EDT (9/23)
Length of Visible Light 12h 57m
Length of Day
12h 06m
Waning Gibbous, 81% of the Moon is Illuminated
Sep 23
Waning Gibbous
Sep 26
Last Quarter
Oct 4
New
Oct 11
First Quarter
Oct 18
Full

Hourly Weather History & Observations

Time (EDT) Temp. Dew Point Humidity Pressure Visibility Wind Dir Wind Speed Gust Speed Precip Events Conditions
12:15 AM 56.5 °F 52.0 °F 85% 30.03 in 10.0 mi NE 4.6 mph - N/A   Overcast
12:35 AM 56.3 °F 52.0 °F 85% 30.02 in 10.0 mi Calm Calm - N/A   Overcast
12:55 AM 55.8 °F 51.8 °F 87% 30.01 in 10.0 mi ENE 4.6 mph - N/A   Mostly Cloudy
1:15 AM 55.4 °F 52.0 °F 88% 30.01 in 10.0 mi NNE 5.8 mph - N/A   Scattered Clouds
1:35 AM 54.3 °F 52.0 °F 92% 30.01 in 7.0 mi ENE 4.6 mph - N/A   Clear
1:55 AM 54.5 °F 51.6 °F 90% 30.01 in 10.0 mi ENE 3.5 mph - N/A   Clear
2:15 AM 54.3 °F 51.6 °F 91% 30.01 in 10.0 mi ENE 4.6 mph - N/A   Clear
2:35 AM 54.1 °F 51.8 °F 92% 30.01 in 10.0 mi ENE 3.5 mph - N/A   Clear
2:55 AM 54.1 °F 51.8 °F 92% 30.01 in 10.0 mi East 4.6 mph - N/A   Clear
3:15 AM 53.8 °F 51.4 °F 92% 30.01 in 10.0 mi East 3.5 mph - N/A   Clear
3:35 AM 54.1 °F 51.4 °F 91% 30.01 in 10.0 mi ENE 4.6 mph - N/A   Clear
3:55 AM 52.7 °F 50.7 °F 93% 30.02 in 5.0 mi Calm Calm - N/A   Clear
4:15 AM 52.7 °F 50.9 °F 94% 30.03 in 5.0 mi ENE 5.8 mph - N/A   Clear
4:35 AM 52.2 °F 50.2 °F 93% 30.03 in 5.0 mi East 4.6 mph - N/A   Clear
4:55 AM 52.2 °F 49.5 °F 91% 30.03 in 10.0 mi East 3.5 mph - N/A   Clear
5:15 AM 50.9 °F 48.2 °F 90% 30.03 in 10.0 mi Calm Calm - N/A   Clear
5:35 AM 48.9 °F 47.3 °F 94% 30.03 in 0.2 mi North 3.5 mph - N/A Fog Fog
5:55 AM 49.8 °F 48.4 °F 95% 30.03 in 1.2 mi NE 5.8 mph - N/A   Overcast
6:15 AM 49.6 °F 48.2 °F 95% 30.03 in 0.2 mi NNE 4.6 mph - N/A Fog Fog
6:35 AM 49.6 °F 48.2 °F 95% 30.04 in 1.5 mi NE 5.8 mph - N/A   Overcast
6:55 AM 49.1 °F 47.7 °F 95% 30.05 in 1.5 mi NE 3.5 mph - N/A   Mostly Cloudy
7:15 AM 48.7 °F 47.3 °F 95% 30.05 in 0.2 mi Calm Calm - N/A Fog Fog
7:35 AM 48.7 °F 47.3 °F 95% 30.06 in 0.2 mi Calm Calm - N/A Fog Fog
7:55 AM 49.1 °F 47.5 °F 94% 30.06 in 0.2 mi Calm Calm - N/A Fog Fog
8:15 AM 49.8 °F 48.4 °F 95% 30.07 in 0.2 mi Calm Calm - N/A Fog Fog
8:35 AM 50.2 °F 48.7 °F 95% 30.07 in 0.2 mi Calm Calm - N/A Fog Fog
8:55 AM 51.3 °F 49.8 °F 95% 30.08 in 0.2 mi Calm Calm - N/A Fog Fog
9:15 AM 52.9 °F 51.4 °F 95% 30.08 in 1.0 mi Calm Calm - N/A   Overcast
9:35 AM 53.4 °F 52.2 °F 95% 30.08 in 0.2 mi Calm Calm - N/A Fog Fog
9:55 AM 54.3 °F 52.9 °F 95% 30.08 in 0.2 mi Calm Calm - N/A Fog Fog
10:15 AM 56.5 °F 53.6 °F 90% 30.08 in 10.0 mi Calm Calm - N/A   Scattered Clouds
10:35 AM 57.6 °F 53.6 °F 87% 30.09 in 10.0 mi Calm Calm - N/A   Clear
10:55 AM 59.4 °F 53.8 °F 82% 30.10 in 10.0 mi Calm Calm - N/A   Clear
11:15 AM 61.0 °F 51.6 °F 71% 30.10 in 10.0 mi Calm Calm - N/A   Clear
11:35 AM 61.9 °F 52.0 °F 70% 30.10 in 10.0 mi Calm Calm - N/A   Clear
11:55 AM 63.3 °F 52.9 °F 69% 30.10 in 10.0 mi Calm Calm - N/A   Clear
12:15 PM 64.9 °F 53.8 °F 67% 30.10 in 10.0 mi WNW 4.6 mph - N/A   Clear
12:35 PM 67.1 °F 54.5 °F 64% 30.09 in 10.0 mi WNW 5.8 mph - N/A   Clear
12:55 PM 67.6 °F 54.1 °F 62% 30.09 in 10.0 mi West 5.8 mph - N/A   Clear
1:15 PM 68.4 °F 53.2 °F 58% 30.09 in 10.0 mi WSW 8.1 mph - N/A   Scattered Clouds
1:35 PM 69.4 °F 55.2 °F 60% 30.09 in 10.0 mi West 5.8 mph - N/A   Scattered Clouds
1:55 PM 69.4 °F 53.8 °F 57% 30.08 in 10.0 mi West 5.8 mph - N/A   Scattered Clouds
2:15 PM 69.8 °F 51.1 °F 51% 30.08 in 10.0 mi NW 4.6 mph - N/A   Scattered Clouds
2:35 PM 71.2 °F 53.8 °F 54% 30.07 in 10.0 mi West 4.6 mph - N/A   Clear
2:55 PM 71.2 °F 51.8 °F 50% 30.08 in 10.0 mi NW 8.1 mph - N/A   Clear
3:15 PM 70.9 °F 52.2 °F 51% 30.07 in 10.0 mi NW 6.9 mph - N/A   Clear
3:35 PM 71.2 °F 51.3 °F 49% 30.07 in 10.0 mi WNW 6.9 mph - N/A   Clear
3:55 PM 71.4 °F 52.7 °F 52% 30.07 in 10.0 mi West 10.4 mph - N/A   Clear
4:15 PM 70.9 °F 51.8 °F 51% 30.07 in 10.0 mi NNW 5.8 mph - N/A   Clear
4:35 PM 70.9 °F 51.4 °F 50% 30.07 in 10.0 mi West 5.8 mph - N/A   Clear
4:55 PM 70.7 °F 51.6 °F 51% 30.07 in 10.0 mi NNW 4.6 mph - N/A   Clear
5:15 PM 70.7 °F 51.8 °F 51% 30.07 in 10.0 mi WNW 3.5 mph - N/A   Clear
5:35 PM 70.5 °F 52.7 °F 53% 30.07 in 10.0 mi WNW 4.6 mph - N/A   Clear
5:55 PM 69.3 °F 53.1 °F 56% 30.07 in 10.0 mi NNW 5.8 mph - N/A   Clear
6:15 PM 68.4 °F 52.9 °F 58% 30.08 in 10.0 mi NW 5.8 mph - N/A   Clear
6:35 PM 67.1 °F 53.6 °F 62% 30.08 in 10.0 mi NNW 5.8 mph - N/A   Clear
6:55 PM 66.2 °F 53.2 °F 63% 30.08 in 10.0 mi NNW 5.8 mph - N/A   Clear
7:15 PM 64.9 °F 52.9 °F 65% 30.08 in 10.0 mi NNW 3.5 mph - N/A   Clear
7:35 PM 64.4 °F 52.9 °F 66% 30.08 in 10.0 mi North 4.6 mph - N/A   Clear
7:55 PM 63.5 °F 52.7 °F 68% 30.08 in 10.0 mi Calm Calm - N/A   Clear
8:15 PM 62.4 °F 52.7 °F 70% 30.08 in 10.0 mi Calm Calm - N/A   Clear
8:35 PM 62.6 °F 53.1 °F 71% 30.10 in 10.0 mi NE 3.5 mph - N/A   Clear
8:55 PM 61.5 °F 52.0 °F 71% 30.10 in 10.0 mi ENE 6.9 mph - N/A   Clear
9:15 PM 61.0 °F 52.0 °F 72% 30.10 in 10.0 mi ENE 5.8 mph - N/A   Clear
9:35 PM 59.9 °F 52.9 °F 78% 30.10 in 10.0 mi ENE 5.8 mph - N/A   Clear
9:55 PM 59.9 °F 53.1 °F 78% 30.10 in 10.0 mi East 4.6 mph - N/A   Clear
10:15 PM 59.7 °F 52.7 °F 78% 30.10 in 10.0 mi East 3.5 mph - N/A   Clear
10:35 PM 59.5 °F 52.2 °F 77% 30.10 in 10.0 mi Calm Calm - N/A   Clear
10:55 PM 58.5 °F 52.7 °F 81% 30.10 in 10.0 mi Calm Calm - N/A   Clear
11:15 PM 58.5 °F 53.2 °F 83% 30.10 in 10.0 mi Calm Calm - N/A   Clear
11:35 PM 55.6 °F 52.5 °F 89% 30.10 in 10.0 mi NE 3.5 mph - N/A   Clear
11:55 PM 57.7 °F 53.1 °F 84% 30.10 in 10.0 mi Calm Calm - N/A   Clear